Stephen R Warden — WDC6523 — position and weather

sailwx.info

Track history (hours):
 
Tides and Currents Weather Stations Pressure Air Temp Water Temp Dewpoint Dewpoint Depression Visibility Wind Speed Wind Dir Waves Ship Positions

Stephen R Warden

Owner: American Commercial Lines LLC, Jeffersonvile, IN. More information available from US FCC via Universal Licensing System and Coast Guard Vessel Documentation Center.

Last reported at 2014-Oct-21 14:23 UTC. Time now 2014-Oct-21 16:53 UTC.
Position N 29°55' W 090°13'.

Length 37 m; draft 3 m.

Type: Towing. MMSI: 367057460.

Date/timePositionNaut miles runAvg speedWind from/ knotsBaromVisibWave heightAir tempDewpointWater temp
2014-Oct-21 14:23N 29°55' W 090°13'5 4.6
2014-Oct-21 13:14N 29°57' W 090°18'2 3.4
2014-Oct-21 12:33N 29°56' W 090°21'3 3.3
2014-Oct-21 11:33N 29°59' W 090°24'8 1.1
2014-Oct-21 04:19N 30°03' W 090°31'4 5.3
2014-Oct-21 03:31N 30°02' W 090°36'6 5.1
2014-Oct-21 02:19N 30°01' W 090°43'2 0.1
2014-Oct-20 09:31N 30°01' W 090°46'0 0.0
2014-Oct-20 07:19N 30°01' W 090°46'0 0.0
2014-Oct-20 06:33N 30°01' W 090°46'1 0.7
2014-Oct-20 04:26N 30°01' W 090°44'0 0.2
2014-Oct-20 03:04N 30°01' W 090°44'0 0.0
2014-Oct-20 02:31N 30°01' W 090°44'1 0.8
2014-Oct-20 01:09N 30°01' W 090°43'11 0.2
2014-Oct-18 05:31N 30°03' W 090°30'14 0.6
2014-Oct-17 07:33N 30°01' W 090°46'0 0.0
2014-Oct-17 05:33N 30°01' W 090°46'0 0.0
2014-Oct-17 03:32N 30°01' W 090°46'1 0.1
2014-Oct-16 13:14N 30°01' W 090°45'0 0.0
2014-Oct-16 12:33N 30°01' W 090°45'0 0.2
2014-Oct-16 11:33N 30°01' W 090°45'4 4.1
2014-Oct-16 10:31N 29°60' W 090°50'6 5.7
2014-Oct-16 09:24N 30°05' W 090°54'0 0.0
2014-Oct-16 07:31N 30°05' W 090°55'4 3.3
2014-Oct-16 06:24N 30°08' W 090°56'4 1.9
2014-Oct-16 04:20N 30°07' W 091°00'5 0.3
2014-Oct-15 13:17N 30°05' W 090°55'2 3.0
2014-Oct-15 12:33N 30°04' W 090°53'2 2.1
2014-Oct-15 11:31N 30°03' W 090°50'4 4.1
2014-Oct-15 10:33N 29°59' W 090°48'2 2.1
2014-Oct-15 09:33N 30°01' W 090°46'0 0.0
2014-Oct-15 08:33N 30°01' W 090°46'0 0.0
2014-Oct-15 07:33N 30°01' W 090°46'0 0.0
2014-Oct-15 06:22N 30°01' W 090°46'0 0.0
2014-Oct-15 05:33N 30°01' W 090°46'0 0.0
2014-Oct-15 04:33N 30°01' W 090°46'0 0.5
2014-Oct-15 03:33N 30°01' W 090°46'0 0.0
2014-Oct-15 02:17N 30°01' W 090°46'3 4.0
2014-Oct-15 01:33N 29°59' W 090°49'16 0.5
2014-Oct-13 19:30N 30°03' W 090°31'13 1.8
2014-Oct-13 12:33N 30°01' W 090°45'0 0.0
2014-Oct-13 11:33N 30°01' W 090°45'0 0.0
2014-Oct-13 10:33N 30°01' W 090°45'1 1.2
2014-Oct-13 09:33N 30°01' W 090°44'3 3.3
2014-Oct-13 08:33N 30°03' W 090°40'3 3.1
2014-Oct-13 07:33N 30°02' W 090°37'3 3.2
2014-Oct-13 06:33N 30°03' W 090°33'3 3.3
2014-Oct-13 05:33N 30°03' W 090°30'3 3.2
2014-Oct-13 04:33N 30°00' W 090°28'1 1.2
2014-Oct-13 03:33N 29°60' W 090°27'3 3.4
2014-Oct-13 02:33N 29°58' W 090°24'8 0.3
2014-Oct-11 23:24N 29°58' W 090°14'2 1.5
2014-Oct-11 22:17N 29°58' W 090°16'4 5.0
2014-Oct-11 21:31N 29°56' W 090°20'6 5.1
2014-Oct-11 20:23N 29°60' W 090°25'4 4.8
2014-Oct-11 19:33N 30°02' W 090°28'6 5.7
2014-Oct-11 18:33N 30°03' W 090°35'5 5.1
2014-Oct-11 17:33N 30°02' W 090°41'4 4.2
2014-Oct-11 16:33N 30°01' W 090°45'0 0.0
2014-Oct-11 15:22N 30°01' W 090°45'  
Track history (hours):
 
Tides and Currents Weather Stations Pressure Air Temp Water Temp Dewpoint Dewpoint Depression Visibility Wind Speed Wind Dir Waves Ship Positions

Stephen R Warden

Owner: American Commercial Lines LLC, Jeffersonvile, IN. More information available from US FCC via Universal Licensing System and Coast Guard Vessel Documentation Center.

Last reported at 2014-Oct-21 14:23 UTC. Time now 2014-Oct-21 16:53 UTC.
Position N 29°55' W 090°13'.

Length 37 m; draft 3 m.

Type: Towing. MMSI: 367057460.

Date/timePositionNaut miles runAvg speedWind from/ knotsBaromVisibWave heightAir tempDewpointWater temp
2014-Oct-21 14:23N 29°55' W 090°13'5 4.6
2014-Oct-21 13:14N 29°57' W 090°18'2 3.4
2014-Oct-21 12:33N 29°56' W 090°21'3 3.3
2014-Oct-21 11:33N 29°59' W 090°24'8 1.1
2014-Oct-21 04:19N 30°03' W 090°31'4 5.3
2014-Oct-21 03:31N 30°02' W 090°36'6 5.1
2014-Oct-21 02:19N 30°01' W 090°43'2 0.1
2014-Oct-20 09:31N 30°01' W 090°46'0 0.0
2014-Oct-20 07:19N 30°01' W 090°46'0 0.0
2014-Oct-20 06:33N 30°01' W 090°46'1 0.7
2014-Oct-20 04:26N 30°01' W 090°44'0 0.2
2014-Oct-20 03:04N 30°01' W 090°44'0 0.0
2014-Oct-20 02:31N 30°01' W 090°44'1 0.8
2014-Oct-20 01:09N 30°01' W 090°43'11 0.2
2014-Oct-18 05:31N 30°03' W 090°30'14 0.6
2014-Oct-17 07:33N 30°01' W 090°46'0 0.0
2014-Oct-17 05:33N 30°01' W 090°46'0 0.0
2014-Oct-17 03:32N 30°01' W 090°46'1 0.1
2014-Oct-16 13:14N 30°01' W 090°45'0 0.0
2014-Oct-16 12:33N 30°01' W 090°45'0 0.2
2014-Oct-16 11:33N 30°01' W 090°45'4 4.1
2014-Oct-16 10:31N 29°60' W 090°50'6 5.7
2014-Oct-16 09:24N 30°05' W 090°54'0 0.0
2014-Oct-16 07:31N 30°05' W 090°55'4 3.3
2014-Oct-16 06:24N 30°08' W 090°56'4 1.9
2014-Oct-16 04:20N 30°07' W 091°00'5 0.3
2014-Oct-15 13:17N 30°05' W 090°55'2 3.0
2014-Oct-15 12:33N 30°04' W 090°53'2 2.1
2014-Oct-15 11:31N 30°03' W 090°50'4 4.1
2014-Oct-15 10:33N 29°59' W 090°48'2 2.1
2014-Oct-15 09:33N 30°01' W 090°46'0 0.0
2014-Oct-15 08:33N 30°01' W 090°46'0 0.0
2014-Oct-15 07:33N 30°01' W 090°46'0 0.0
2014-Oct-15 06:22N 30°01' W 090°46'0 0.0
2014-Oct-15 05:33N 30°01' W 090°46'0 0.0
2014-Oct-15 04:33N 30°01' W 090°46'0 0.5
2014-Oct-15 03:33N 30°01' W 090°46'0 0.0
2014-Oct-15 02:17N 30°01' W 090°46'3 4.0
2014-Oct-15 01:33N 29°59' W 090°49'16 0.5
2014-Oct-13 19:30N 30°03' W 090°31'13 1.8
2014-Oct-13 12:33N 30°01' W 090°45'0 0.0
2014-Oct-13 11:33N 30°01' W 090°45'0 0.0
2014-Oct-13 10:33N 30°01' W 090°45'1 1.2
2014-Oct-13 09:33N 30°01' W 090°44'3 3.3
2014-Oct-13 08:33N 30°03' W 090°40'3 3.1
2014-Oct-13 07:33N 30°02' W 090°37'3 3.2
2014-Oct-13 06:33N 30°03' W 090°33'3 3.3
2014-Oct-13 05:33N 30°03' W 090°30'3 3.2
2014-Oct-13 04:33N 30°00' W 090°28'1 1.2
2014-Oct-13 03:33N 29°60' W 090°27'3 3.4
2014-Oct-13 02:33N 29°58' W 090°24'8 0.3
2014-Oct-11 23:24N 29°58' W 090°14'2 1.5
2014-Oct-11 22:17N 29°58' W 090°16'4 5.0
2014-Oct-11 21:31N 29°56' W 090°20'6 5.1
2014-Oct-11 20:23N 29°60' W 090°25'4 4.8
2014-Oct-11 19:33N 30°02' W 090°28'6 5.7
2014-Oct-11 18:33N 30°03' W 090°35'5 5.1
2014-Oct-11 17:33N 30°02' W 090°41'4 4.2
2014-Oct-11 16:33N 30°01' W 090°45'0 0.0
2014-Oct-11 15:22N 30°01' W 090°45'  

Dump ship's entire track history